This is the latest recevied weather packets stored in our database for station/object K1BES. If no packets are shown the sender has not sent any weather packets the latest 10 day(s).
| Time | Temp. | Humidity | Pressure | Rain* | Wind** | Luminosity | Snow |
|---|---|---|---|---|---|---|---|
| 1787520037 | 27.22° C | 81% | 1017.9 hPa | 0 mm | - | 177 W/m² | - |
| 1787519733 | 27.22° C | 81% | 1017.9 hPa | 0 mm | - | 190 W/m² | - |
| 1787519432 | 26.67° C | 82% | 1018.1 hPa | 0 mm | - | 202 W/m² | - |
| 1787519127 | 26.67° C | 84% | 1017.8 hPa | 0 mm | - | 215 W/m² | - |
| 1787518822 | 26.67° C | 84% | 1017.9 hPa | 0 mm | - | 226 W/m² | - |
| 1787518519 | 26.67° C | 85% | 1018 hPa | 0 mm | - | 232 W/m² | - |
| 1787518218 | 26.67° C | 85% | 1017.9 hPa | 0 mm | - | 227 W/m² | - |
| 1787517914 | 26.67° C | 86% | 1018 hPa | 0 mm | - | 217 W/m² | - |
| 1787517609 | 26.11° C | 87% | 1017.9 hPa | 0 mm | - | 206 W/m² | - |
| 1787517307 | 26.11° C | 87% | 1018.3 hPa | 0 mm | - | 200 W/m² | - |
| 1787517006 | 26.11° C | 88% | 1018.4 hPa | 0 mm | - | 205 W/m² | - |
| 1787516701 | 26.11° C | 88% | 1018.5 hPa | 0 mm | - | 217 W/m² | - |
| 1787516396 | 26.11° C | 89% | 1018.4 hPa | 0 mm | - | 232 W/m² | - |
| 1787516096 | 26.11° C | 88% | 1018.7 hPa | 0 mm | - | 248 W/m² | - |
| 1787515791 | 26.11° C | 87% | 1018.7 hPa | 0 mm | - | 235 W/m² | - |
| 1787515488 | 26.11° C | 86% | 1018.9 hPa | 0 mm | - | 240 W/m² | - |
| 1787515187 | 26.11° C | 86% | 1018.7 hPa | 0 mm | - | 285 W/m² | - |
| 1787514883 | 26.67° C | 86% | 1018.7 hPa | 0 mm | - | 287 W/m² | - |
| 1787514578 | 27.22° C | 83% | 1018.9 hPa | 0 mm | - | 134 W/m² | - |
| 1787514275 | 28.89° C | 80% | 1018.7 hPa | 0 mm | - | 154 W/m² | - |
| 1787513974 | 28.89° C | 80% | 1018.4 hPa | 0 mm | - | 290 W/m² | - |
| 1787513669 | 28.89° C | 80% | 1018.6 hPa | 0 mm | - | 280 W/m² | - |
| 1787513365 | 28.33° C | 81% | 1019 hPa | 0 mm | - | 260 W/m² | - |
| 1787513062 | 28.33° C | 82% | 1018.9 hPa | 0 mm | - | 237 W/m² | - |
| 1787512757 | 27.78° C | 84% | 1018.7 hPa | 0 mm | - | 241 W/m² | - |
* Rain latest hour (hover to see other rain measurements)
** Current wind speed in m/s (hover to see current wind gust speed)